Location: Agadir Irigdalene
(31.2522°N, 8.7797°W)
Time: 06:21:48
(UTC+00:00)

USA 276 - Pass Details

Date: 01 December 2020
Orbit: 380 x 394 km, 50.0° (Epoch: 07 January)

Event Time Altitude Azimuth Distance (km) Brightness Sun altitude
Rises 18:10:42 0° 199° (SSW) 2,242 6.6 -8.4°
Reaches altitude 10° 18:13:02 10° 182° (S) 1,397 5.2 -8.9°
Maximum altitude 18:15:29 21° 130° (SE) 919 3.7 -9.4°
Enters shadow 18:17:21 13° 86° (E) 1,221 4.0 -9.8°
